This demonstration page uses our WeatherBlox Daily Observations layout. Learn more.

Left ArrowRight Arrow

Hourly Observations for June 2, 2021

Temp ( °F °C ) Dew Point ( °F °C ) Humidity (%) Winds ( mph kmh ) Pressure ( in mb ) Visibility ( mi km ) Precip ( " mm )
12:53 am 00:53 Clear 65 18.3 44 6.7 47 47 N N/A 29.89 1012 10 16 N/A
1:53 am 01:53 Clear 59 15 45 7.2 60 60 S 6 9 29.89 1012 10 16 N/A
2:53 am 02:53 Clear 52 11.1 46 7.8 80 80 WNW 7 11 29.89 1012 10 16 N/A
3:53 am 03:53 Clear 51 10.6 45 7.2 80 80 NW 3 6 29.89 1012 10 16 N/A
4:53 am 04:53 Clear 51 10.6 45 7.2 80 80 N N/A 29.90 1013 10 16 N/A
5:53 am 05:53 Sunny 51 10.6 46 7.8 83 83 SE 3 6 29.91 1013 10 16 N/A
6:53 am 06:53 Sunny 59 15 48 8.9 67 67 SSW 5 7 29.91 1013 10 16 N/A
7:53 am 07:53 Sunny 63 17.2 49 9.4 60 60 SW 10 17 29.91 1013 10 16 N/A
8:53 am 08:53 Sunny 71 21.7 50 10 47 47 SW 18 30 29.89 1012 10 16 N/A
9:53 am 09:53 Sunny 74 23.3 50 10 43 43 WSW 18 30 29.89 1012 10 16 N/A
10:53 am 10:53 Sunny 78 25.6 51 10.6 39 39 WSW 14 22 29.88 1012 N/A N/A
11:53 am 11:53 Sunny 80 26.7 53 11.7 39 39 SW 13 20 29.86 1011 10 16 N/A
12:53 pm 12:53 Sunny 85 29.4 55 12.8 36 36 SW 14 22 29.85 1011 10 16 N/A
1:53 pm 13:53 Sunny 87 30.6 53 11.7 31 31 SW 9 15 29.83 1010 10 16 N/A
2:53 pm 14:53 Sunny 88 31.1 48 8.9 25 25 SW 12 19 29.83 1010 10 16 N/A
3:53 pm 15:53 Sunny 89 31.7 49 9.4 25 25 WSW 14 22 29.81 1010 10 16 N/A
4:53 pm 16:53 Sunny 89 31.7 49 9.4 25 25 W 13 20 29.80 1009 10 16 N/A
5:53 pm 17:53 Sunny 88 31.1 49 9.4 26 26 WSW 10 17 29.78 1009 10 16 N/A
6:53 pm 18:53 Sunny 87 30.6 52 11.1 30 30 SW 10 17 29.76 1008 10 16 N/A
7:53 pm 19:53 Sunny 81 27.2 57 13.9 44 44 SSW 8 13 29.76 1008 10 16 N/A
8:53 pm 20:53 Sunny 77 25 57 13.9 50 50 NW 7 11 29.76 1008 10 16 N/A
9:53 pm 21:53 Clear 72 22.2 54 12.2 53 53 SW 13 20 29.76 1008 10 16 N/A
10:53 pm 22:53 Clear 65 18.3 52 11.1 63 63 S 8 13 29.77 1008 10 16 N/A
11:53 pm 23:53 Clear 64 17.8 51 10.6 63 63 N N/A 29.77 1008 10 16 N/A

Powered by AerisWeather